GORIZONT 16 [-]

Last updated on Tue Jun 27 2023 00:03:00 GMT+0000 (Coordinated Universal Time)

1 19397U 88071A 23177.42619527 -.00000282 00000+0 00000+0 0 9990 2 19397 12.9041 337.4277 0014748 76.9101 332.7961 0.99982705127368
UTC large
Height (km)
Speed (km/s)
/
Latitude / Longitude
Inclination (degrees)
Orbital Period (minutes)
Azimuth
Elevation
Range (km)
Doppler Factor

Next 0 passes for location: London (51.5072 / 0.1276)

Sorry there are no passes over London.
GORIZONT 16 [-]